Regional Weather Roundup
Issued by NWS

Home | Current Version | Previous Version | Graphics & Text | Print | Product List | Glossary On
Versions: 1 2 3 4 5 6 7 8 9 10 11 12 13 14 15 16 17 18 19 20 21 22 23 24 25 26 27 28 29 30 31 32 33 34 35 36 37 38 39 40 41 42 43 44 45 46 47 48 49 50
000
ASUS43 KFSD 261002
RWRSD

WEATHER ROUNDUP FOR SOUTH DAKOTA
NATIONAL WEATHER SERVICE SIOUX FALLS SD
500 AM CDT SUN APR 26 2015

NOTE: "FAIR" INDICATES FEW OR NO CLOUDS BELOW 12,000 FEET WITH NO
SIGNIFICANT WEATHER AND/OR OBSTRUCTIONS TO VISIBILITY.


SDZ001>005-009-010-012>017-261100-
NORTHWEST AND NORTH CENTRAL SOUTH DAKOTA

CITY           SKY/WX    TMP DP  RH WIND       PRES   REMARKS
BUFFALO          N/A     43  40  89 CALM      29.87R
FAITH            N/A     49  45  86 E3        29.91R
MOBRIDGE       CLOUDY    51  43  74 SE12      29.93R
$$

SDZ012>016-024>037-041>051-057-063-072>074-261100-
SOUTHWEST AND SOUTH CENTRAL SOUTH DAKOTA

CITY           SKY/WX    TMP DP  RH WIND       PRES   REMARKS
RAPID CTY ARPT CLOUDY    43  41  93 N13       29.89R
PIERRE         CLOUDY    50  42  74 SE12      29.94R
CUSTER         FOG       42  41  96 E9        29.88R VSB 1/4
ELLSWORTH AFB  CLOUDY    43  43 100 N14       29.89R
PHILIP         CLOUDY    50  47  89 E8        29.89S
PINE RIDGE     CLOUDY    50  46  86 E9        29.87R
WINNER         CLOUDY    50  42  74 E8        29.93F
$$

SDZ004>011-016>023-039-040-261100-
NORTHEAST SOUTH DAKOTA

CITY           SKY/WX    TMP DP  RH WIND       PRES   REMARKS
ABERDEEN       CLOUDY    48  41  76 SE3       30.01R
WATERTOWN      CLEAR     38  34  85 CALM      30.00R
BROOKINGS      PTCLDY    36  34  93 NE8       30.02R
SISSETON         N/A     34  31  88 S6        30.03R WCI  29
$$

SDZ017-020-022-023-036>040-048>070-261100-
SOUTHEAST SOUTH DAKOTA

CITY           SKY/WX    TMP DP  RH WIND       PRES   REMARKS
SIOUX FALLS    PTCLDY    36  33  89 E5        29.98R
HURON          PTCLDY    38  36  92 CALM      30.00R
MITCHELL       PTCLDY    41  39  93 E6        30.00R
YANKTON        PTCLDY    43  37  81 NE6       29.98R
$$

ABBREVIATIONS USED IN REMARKS
   TC - TEMPERATURE IN CELSIUS
  WCI - WIND CHILL INDEX
   HX - HEAT INDEX
  VSB - VISIBILITY



USA.gov is the U.S. government's official web portal to all federal, state and local government web resources and services.